Weather History for Lexington, NE

Change the Weather History Date:

Wednesday, June 19, 2013

  Actual Average Record
Temperature  
Mean Temperature 74 °F -  
Max Temperature 85 °F 80 °F 98 °F (1997)
Min Temperature 62 °F 55 °F 48 °F (2004)
Cooling Degree Days 8    
Growing Degree Days 24 (Base 50)    
Moisture  
Dew Point 61 °F    
Average Humidity 68    
Maximum Humidity 92    
Minimum Humidity 42    
Precipitation  
Precipitation 0.00 in - - ()
Sea Level Pressure  
Sea Level Pressure 29.92 in    
Wind  
Wind Speed 11 mph (SSE)    
Max Wind Speed 25 mph    
Max Gust Speed 31 mph    
Visibility 10 miles    
Events      
Averages and records for this station are not official NWS values.
T = Trace of Precipitation, MM = Missing Value Source: NWS Daily Summary

Daily Weather History Graph

Daily Weather History Graph

Search for Another Location

Airport:

Trip Planner

Search our weather history database for the weather conditions in past years. The results will help you decide how hot, cold, wet, or windy it might be!

Date:

Astronomy

Jun. 19, 2013 Rise Set
Actual Time 6:07 AM CDT 9:13 PM CDT
Civil Twilight 5:33 AM CDT 9:47 PM CDT
Nautical Twilight 4:51 AM CDT 10:29 PM CDT
Astronomical Twilight 4:00 AM CDT 11:20 PM CDT
Moon 5:07 PM CDT (6/19) 2:54 AM CDT (6/19)
Length of Visible Light 16h 13m
Length of Day
15h 06m
Waxing Gibbous, 80% of the Moon is Illuminated
Jun 19
Waxing Gibbous
Jun 23
Full
Jun 29
Last Quarter
Jul 8
New
Jul 15
First Quarter

Hourly Weather History & Observations

Time (CDT) Temp. Heat Index Dew Point Humidity Pressure Visibility Wind Dir Wind Speed Gust Speed Precip Events Conditions
12:15 AM 67.5 °F - 62.2 °F 83% 30.00 in 10.0 mi ESE 8.1 mph - N/A   Scattered Clouds
12:35 AM 67.1 °F - 61.7 °F 83% 29.99 in 10.0 mi SE 9.2 mph - N/A   Clear
12:55 AM 66.7 °F - 61.7 °F 84% 30.00 in 10.0 mi SE 9.2 mph - N/A   Clear
1:15 AM 67.1 °F - 60.8 °F 80% 29.99 in 10.0 mi SSE 8.1 mph - N/A   Scattered Clouds
1:35 AM 66.6 °F - 60.8 °F 82% 30.01 in 10.0 mi South 8.1 mph - N/A   Mostly Cloudy
1:55 AM 65.8 °F - 60.8 °F 84% 30.01 in 10.0 mi South 9.2 mph - N/A   Scattered Clouds
2:15 AM 65.8 °F - 60.4 °F 83% 30.00 in 10.0 mi SE 10.4 mph - N/A   Scattered Clouds
2:35 AM 66.2 °F - 60.4 °F 82% 29.99 in 10.0 mi SE 8.1 mph - N/A   Mostly Cloudy
2:55 AM 66.2 °F - 60.4 °F 82% 29.99 in 10.0 mi SSE 8.1 mph - N/A   Overcast
3:15 AM 66.2 °F - 60.3 °F 81% 29.98 in 10.0 mi SE 6.9 mph - N/A   Overcast
3:35 AM 65.7 °F - 60.8 °F 84% 29.99 in 10.0 mi South 6.9 mph - N/A   Mostly Cloudy
3:55 AM 64.4 °F - 60.6 °F 88% 29.98 in 10.0 mi South 6.9 mph - N/A   Scattered Clouds
4:15 AM 63.7 °F - 60.4 °F 89% 29.97 in 10.0 mi South 6.9 mph - N/A   Clear
4:35 AM 63.1 °F - 60.4 °F 91% 29.98 in 10.0 mi South 3.5 mph - N/A   Clear
4:55 AM 62.8 °F - 60.4 °F 92% 29.98 in 10.0 mi SSE 3.5 mph - N/A   Clear
5:15 AM 63.5 °F - 60.3 °F 89% 29.96 in 10.0 mi SE 8.1 mph - N/A   Clear
5:35 AM 63.5 °F - 60.3 °F 89% 29.95 in 10.0 mi SSE 5.8 mph - N/A   Clear
5:55 AM 63.1 °F - 60.1 °F 90% 29.96 in 10.0 mi Calm Calm - N/A   Clear
6:15 AM 63.0 °F - 60.1 °F 90% 29.96 in 10.0 mi Calm Calm - N/A   Scattered Clouds
6:35 AM 62.6 °F - 59.9 °F 91% 29.96 in 10.0 mi SE 5.8 mph - N/A   Scattered Clouds
6:55 AM 63.7 °F - 59.9 °F 87% 29.95 in 10.0 mi SSE 6.9 mph - N/A   Clear
7:15 AM 63.5 °F - 59.9 °F 88% 29.95 in 10.0 mi SSE 6.9 mph - N/A   Clear
7:35 AM 63.9 °F - 59.9 °F 87% 29.96 in 10.0 mi SE 5.8 mph - N/A   Clear
7:55 AM 66.0 °F - 60.6 °F 83% 29.96 in 10.0 mi SSE 9.2 mph - N/A   Clear
8:15 AM 67.1 °F - 60.8 °F 80% 29.97 in 10.0 mi SSE 9.2 mph - N/A   Clear
8:35 AM 67.5 °F - 61.0 °F 80% 29.97 in 10.0 mi South 10.4 mph - N/A   Clear
8:55 AM 69.3 °F - 61.7 °F 77% 29.96 in 10.0 mi SSE 10.4 mph - N/A   Clear
9:15 AM 70.7 °F - 61.9 °F 74% 29.96 in 10.0 mi SSE 9.2 mph - N/A   Clear
9:35 AM 72.1 °F - 63.0 °F 73% 29.97 in 10.0 mi SSE 10.4 mph - N/A   Clear
9:55 AM 72.5 °F - 62.4 °F 71% 29.96 in 10.0 mi South 9.2 mph - N/A   Clear
10:15 AM 72.1 °F - 63.5 °F 74% 29.96 in 10.0 mi SSE 10.4 mph - N/A   Mostly Cloudy
10:35 AM 73.8 °F - 63.9 °F 71% 29.96 in 10.0 mi SSE 10.4 mph - N/A   Overcast
10:55 AM 74.8 °F - 64.8 °F 71% 29.95 in 10.0 mi SSE 11.5 mph 17.3 mph N/A   Mostly Cloudy
11:15 AM 75.7 °F - 64.0 °F 67% 29.94 in 10.0 mi SSE 12.7 mph - N/A   Scattered Clouds
11:35 AM 76.1 °F - 63.3 °F 64% 29.94 in 10.0 mi SSE 15.0 mph - N/A   Scattered Clouds
11:55 AM 77.4 °F - 64.0 °F 63% 29.93 in 10.0 mi SE 13.8 mph 19.6 mph N/A   Clear
12:15 PM 77.9 °F - 64.8 °F 64% 29.93 in 10.0 mi SE 12.7 mph - N/A   Clear
2:15 PM 83.1 °F 84.0 °F 62.6 °F 50% 29.91 in 10.0 mi South 15.0 mph 20.7 mph N/A   Clear
2:35 PM 83.3 °F 83.7 °F 61.0 °F 47% 29.90 in 10.0 mi SSE 19.6 mph 25.3 mph N/A   Scattered Clouds
2:55 PM 83.5 °F 83.9 °F 61.3 °F 47% 29.90 in 10.0 mi SSE 16.1 mph 25.3 mph N/A   Mostly Cloudy
3:15 PM 83.3 °F 84.1 °F 62.4 °F 49% 29.89 in 10.0 mi SSE 18.4 mph 25.3 mph N/A   Mostly Cloudy
3:35 PM 84.6 °F 85.0 °F 61.5 °F 46% 29.88 in 10.0 mi SSE 19.6 mph 29.9 mph N/A   Scattered Clouds
3:55 PM 85.1 °F 85.7 °F 62.1 °F 46% 29.88 in 10.0 mi SSE 25.3 mph 31.1 mph N/A   Clear
4:15 PM 84.6 °F 84.4 °F 59.9 °F 43% 29.87 in 10.0 mi SSE 18.4 mph 29.9 mph N/A   Scattered Clouds
4:35 PM 85.1 °F 85.0 °F 60.3 °F 43% 29.87 in 10.0 mi SSE 25.3 mph 29.9 mph N/A   Clear
4:55 PM 85.1 °F 85.2 °F 60.8 °F 44% 29.86 in 10.0 mi SSE 24.2 mph 29.9 mph N/A   Clear
5:15 PM 85.1 °F 85.2 °F 61.0 °F 44% 29.85 in 10.0 mi SSE 25.3 mph 28.8 mph N/A   Clear
5:35 PM 84.9 °F 84.8 °F 60.1 °F 43% 29.85 in 10.0 mi SSE 23.0 mph 29.9 mph N/A   Clear
5:55 PM 84.9 °F 84.8 °F 59.9 °F 43% 29.84 in 10.0 mi SSE 19.6 mph 27.6 mph N/A   Clear
6:15 PM 84.4 °F 84.0 °F 58.8 °F 42% 29.84 in 10.0 mi SSE 23.0 mph 28.8 mph N/A   Scattered Clouds
6:35 PM 82.9 °F 82.8 °F 58.8 °F 44% 29.84 in 10.0 mi SSE 21.9 mph 28.8 mph N/A   Mostly Cloudy
6:55 PM 83.8 °F 83.6 °F 59.4 °F 43% 29.83 in 10.0 mi SSE 20.7 mph 26.5 mph N/A   Overcast
7:15 PM 83.3 °F 83.4 °F 59.7 °F 45% 29.83 in 10.0 mi SSE 17.3 mph 25.3 mph N/A   Scattered Clouds
7:35 PM 82.8 °F 83.1 °F 60.4 °F 47% 29.83 in 10.0 mi SSE 18.4 mph 25.3 mph N/A   Clear
7:55 PM 81.9 °F 82.5 °F 61.0 °F 49% 29.83 in 10.0 mi SSE 13.8 mph - N/A   Clear
8:15 PM 81.5 °F 82.2 °F 61.2 °F 50% 29.83 in 10.0 mi SSE 17.3 mph 23.0 mph N/A   Clear
8:35 PM 80.2 °F 81.3 °F 61.7 °F 53% 29.83 in 10.0 mi SSE 16.1 mph 19.6 mph N/A   Clear
8:55 PM 79.0 °F - 61.9 °F 56% 29.83 in 10.0 mi SSE 15.0 mph - N/A   Clear
9:15 PM 78.1 °F - 61.7 °F 57% 29.84 in 10.0 mi SSE 13.8 mph - N/A   Clear
9:35 PM 77.2 °F - 62.1 °F 59% 29.84 in 10.0 mi SSE 12.7 mph - N/A   Clear
9:55 PM 76.1 °F - 62.6 °F 63% 29.85 in 10.0 mi SSE 13.8 mph - N/A   Clear
10:15 PM 76.1 °F - 62.6 °F 63% 29.86 in 10.0 mi SSE 12.7 mph 19.6 mph N/A   Clear
10:35 PM 75.2 °F - 62.4 °F 64% 29.86 in 10.0 mi SSE 13.8 mph - N/A   Clear
10:55 PM 75.2 °F - 62.4 °F 64% 29.87 in 10.0 mi SSE 16.1 mph 20.7 mph N/A   Clear
11:15 PM 74.3 °F - 62.2 °F 66% 29.88 in 10.0 mi SSE 12.7 mph - N/A   Clear
11:35 PM 73.4 °F - 62.2 °F 68% 29.88 in 10.0 mi SSE 13.8 mph 19.6 mph N/A   Clear
11:55 PM 72.5 °F - 62.6 °F 71% 29.88 in 10.0 mi SSE 13.8 mph - N/A   Clear